• en Belgique
  • Liste des pays
  • À 7 jours
  • Température de l'eau
  • Carte satellitaire
  • Carte météo
  • Widgets météo
  • user-avatar
    Se connecter

    Météo par heure à Algérie

    Ce jour, 19 Juillet, Jeudi

    Heure Température Précipitation Vent Pression Humidité
    00:00 +30°C° 0 mm 1 m/s 748 mmHg 61%
    01:00 +29°C° 0 mm 2 m/s 748 mmHg 61%
    02:00 +29°C° 0 mm 2 m/s 748 mmHg 62%
    03:00 +29°C° 0 mm 2 m/s 748 mmHg 62%
    04:00 +29°C° 0 mm 2 m/s 748 mmHg 62%
    05:00 +29°C° 0 mm 2 m/s 748 mmHg 62%
    06:00 +29°C° 0 mm 2 m/s 748 mmHg 62%
    07:00 +30°C° 0 mm 2 m/s 748 mmHg 57%
    08:00 +32°C° 0 mm 1 m/s 749 mmHg 51%
    09:00 +33°C° 0 mm 1 m/s 749 mmHg 46%
    10:00 +35°C° 0 mm 2 m/s 749 mmHg 43%
    11:00 +36°C° 0 mm 2 m/s 749 mmHg 40%
    12:00 +38°C° 0 mm 2 m/s 749 mmHg 37%
    13:00 +39°C° 0 mm 3 m/s 748 mmHg 33%
    14:00 +40°C° 0 mm 3 m/s 748 mmHg 29%
    15:00 +42°C° 0 mm 3 m/s 747 mmHg 24%
    16:00 +39°C° 0 mm 3 m/s 747 mmHg 29%
    17:00 +38°C° 0 mm 3 m/s 747 mmHg 34%
    18:00 +37°C° 0 mm 3 m/s 747 mmHg 38%
    19:00 +35°C° 0 mm 3 m/s 747 mmHg 43%
    20:00 +34°C° 0 mm 2 m/s 748 mmHg 47%
    21:00 +31°C° 0 mm 2 m/s 748 mmHg 52%
    22:00 +32°C° 0 mm 2 m/s 748 mmHg 46%
    23:00 +34°C° 0 mm 2 m/s 748 mmHg 40%

    Demain, 20 Juillet, Vendredi

    Heure Température Précipitation Vent Pression Humidité
    00:00 +35°C° 0 mm 2 m/s 748 mmHg 35%
    01:00 +35°C° 0 mm 2 m/s 747 mmHg 34%
    02:00 +34°C° 0 mm 2 m/s 747 mmHg 34%
    03:00 +34°C° 0 mm 2 m/s 747 mmHg 34%
    04:00 +34°C° 0 mm 2 m/s 747 mmHg 34%
    05:00 +33°C° 0 mm 1 m/s 747 mmHg 35%
    06:00 +33°C° 0 mm 1 m/s 747 mmHg 36%
    07:00 +35°C° 0 mm 2 m/s 747 mmHg 34%
    08:00 +37°C° 0 mm 2 m/s 747 mmHg 33%
    09:00 +38°C° 0 mm 3 m/s 748 mmHg 31%
    10:00 +39°C° 0 mm 2 m/s 747 mmHg 29%
    11:00 +40°C° 0 mm 2 m/s 747 mmHg 27%
    12:00 +41°C° 0 mm 2 m/s 747 mmHg 25%
    13:00 +42°C° 0 mm 3 m/s 747 mmHg 25%
    14:00 +42°C° 0 mm 3 m/s 746 mmHg 25%
    15:00 +42°C° 0 mm 4 m/s 746 mmHg 25%
    16:00 +40°C° 0 mm 3 m/s 746 mmHg 29%
    17:00 +38°C° 0 mm 3 m/s 746 mmHg 34%
    18:00 +37°C° 0 mm 3 m/s 746 mmHg 38%
    19:00 +36°C° 0 mm 2 m/s 746 mmHg 41%
    20:00 +35°C° 0 mm 2 m/s 746 mmHg 43%
    21:00 +34°C° 0 mm 2 m/s 746 mmHg 45%
    22:00 +35°C° 0 mm 2 m/s 746 mmHg 42%
    23:00 +35°C° 0 mm 2 m/s 746 mmHg 40%

    Après-demain, 21 Juillet, Samedi

    Heure Température Précipitation Vent Pression Humidité
    00:00 +36°C° 0 mm 3 m/s 745 mmHg 37%
    01:00 +35°C° 0 mm 3 m/s 745 mmHg 42%
    02:00 +33°C° 0 mm 3 m/s 745 mmHg 47%
    03:00 +31°C° 0 mm 3 m/s 745 mmHg 52%
    04:00 +31°C° 0 mm 2 m/s 746 mmHg 54%
    05:00 +30°C° 0 mm 2 m/s 746 mmHg 56%
    06:00 +30°C° 0 mm 2 m/s 746 mmHg 58%
    07:00 +31°C° 0 mm 2 m/s 747 mmHg 52%
    08:00 +34°C° 0 mm 2 m/s 747 mmHg 45%
    09:00 +36°C° 0 mm 2 m/s 747 mmHg 38%
    10:00 +37°C° 0 mm 2 m/s 747 mmHg 34%
    11:00 +39°C° 0 mm 3 m/s 747 mmHg 31%
    12:00 +40°C° 0 mm 3 m/s 747 mmHg 27%
    13:00 +39°C° 0 mm 3 m/s 747 mmHg 29%
    14:00 +40°C° 0 mm 4 m/s 746 mmHg 32%
    15:00 +38°C° 0 mm 4 m/s 746 mmHg 34%
    16:00 +36°C° 0 mm 3 m/s 746 mmHg 38%
    17:00 +35°C° 0 mm 3 m/s 746 mmHg 41%
    18:00 +34°C° 0 mm 3 m/s 746 mmHg 44%
    19:00 +33°C° 0 mm 3 m/s 747 mmHg 48%
    20:00 +31°C° 0 mm 3 m/s 747 mmHg 52%
    21:00 +30°C° 0 mm 3 m/s 747 mmHg 55%
    22:00 +30°C° 0 mm 3 m/s 747 mmHg 54%
    23:00 +30°C° 0 mm 3 m/s 747 mmHg 54%

    22 Juillet, Dimanche

    Heure Température Précipitation Vent Pression Humidité
    00:00 +30°C° 0 mm 3 m/s 747 mmHg 53%
    01:00 +30°C° 0 mm 3 m/s 747 mmHg 54%
    02:00 +30°C° 0 mm 4 m/s 746 mmHg 56%
    03:00 +29°C° 0 mm 4 m/s 746 mmHg 58%
    04:00 +29°C° 0 mm 4 m/s 746 mmHg 60%
    05:00 +29°C° 0 mm 4 m/s 746 mmHg 62%
    06:00 +29°C° 0 mm 4 m/s 747 mmHg 64%
    07:00 +30°C° 0 mm 4 m/s 747 mmHg 60%
    08:00 +32°C° 0 mm 4 m/s 747 mmHg 56%
    09:00 +33°C° 0 mm 4 m/s 747 mmHg 52%
    10:00 +34°C° 0 mm 4 m/s 747 mmHg 49%
    11:00 +34°C° 0 mm 5 m/s 747 mmHg 46%
    12:00 +35°C° 0 mm 5 m/s 747 mmHg 43%
    13:00 +36°C° 0 mm 5 m/s 747 mmHg 43%
    14:00 +36°C° 0 mm 5 m/s 747 mmHg 43%
    15:00 +38°C° 0 mm 6 m/s 747 mmHg 42%
    16:00 +35°C° 0 mm 6 m/s 747 mmHg 46%
    17:00 +34°C° 0 mm 5 m/s 747 mmHg 51%
    18:00 +33°C° 0 mm 5 m/s 747 mmHg 55%
    19:00 +30°C° 0 mm 5 m/s 748 mmHg 60%
    20:00 +29°C° 0 mm 5 m/s 748 mmHg 66%
    21:00 +28°C° 0 mm 4 m/s 749 mmHg 72%
    22:00 +27°C° 0 mm 4 m/s 748 mmHg 73%
    23:00 +27°C° 0 mm 4 m/s 748 mmHg 75%

    23 Juillet, Lundi

    Heure Température Précipitation Vent Pression Humidité
    00:00 +26°C° 0 mm 3 m/s 748 mmHg 77%
    01:00 +26°C° 0 mm 3 m/s 748 mmHg 75%
    02:00 +26°C° 0 mm 3 m/s 747 mmHg 74%
    03:00 +26°C° 0 mm 3 m/s 747 mmHg 72%
    04:00 +26°C° 0 mm 3 m/s 747 mmHg 68%
    05:00 +27°C° 0 mm 3 m/s 748 mmHg 64%
    06:00 +27°C° 0 mm 3 m/s 748 mmHg 60%
    07:00 +29°C° 0 mm 3 m/s 748 mmHg 51%
    08:00 +31°C° 0 mm 3 m/s 748 mmHg 42%
    09:00 +34°C° 0 mm 4 m/s 748 mmHg 33%
    10:00 +36°C° 0 mm 4 m/s 748 mmHg 30%
    11:00 +37°C° 0 mm 5 m/s 748 mmHg 28%
    12:00 +39°C° 0 mm 5 m/s 748 mmHg 26%
    13:00 +39°C° 0 mm 5 m/s 747 mmHg 26%
    14:00 +40°C° 0 mm 6 m/s 747 mmHg 26%
    15:00 +40°C° 0 mm 6 m/s 747 mmHg 26%
    16:00 +39°C° 0 mm 5 m/s 747 mmHg 28%
    17:00 +37°C° 0 mm 5 m/s 747 mmHg 30%
    18:00 +36°C° 0 mm 5 m/s 747 mmHg 32%
    19:00 +35°C° 0 mm 4 m/s 747 mmHg 35%
    20:00 +34°C° 0 mm 4 m/s 747 mmHg 38%
    21:00 +31°C° 0 mm 3 m/s 747 mmHg 41%
    22:00 +31°C° 0 mm 3 m/s 747 mmHg 40%
    23:00 +31°C° 0 mm 3 m/s 747 mmHg 40%

    24 Juillet, Mardi

    Heure Température Précipitation Vent Pression Humidité
    00:00 +31°C° 0 mm 3 m/s 747 mmHg 39%
    01:00 +30°C° 0 mm 3 m/s 746 mmHg 38%
    02:00 +30°C° 0 mm 2 m/s 746 mmHg 37%
    03:00 +30°C° 0 mm 2 m/s 746 mmHg 35%
    04:00 +30°C° 0 mm 2 m/s 746 mmHg 35%
    05:00 +31°C° 0 mm 2 m/s 746 mmHg 35%
    06:00 +31°C° 0 mm 2 m/s 747 mmHg 34%
    07:00 +34°C° 0 mm 2 m/s 747 mmHg 32%
    08:00 +35°C° 0 mm 3 m/s 747 mmHg 31%
    09:00 +36°C° 0 mm 3 m/s 747 mmHg 29%
    10:00 +37°C° 0 mm 3 m/s 747 mmHg 29%
    11:00 +38°C° 0 mm 3 m/s 746 mmHg 29%
    12:00 +40°C° 0 mm 4 m/s 746 mmHg 29%
    13:00 +38°C° 0 mm 3 m/s 746 mmHg 30%
    14:00 +38°C° 0 mm 3 m/s 746 mmHg 32%
    15:00 +38°C° 0 mm 3 m/s 745 mmHg 34%
    16:00 +37°C° 0 mm 3 m/s 745 mmHg 37%
    17:00 +36°C° 0 mm 2 m/s 745 mmHg 40%
    18:00 +35°C° 0 mm 2 m/s 745 mmHg 43%
    19:00 +33°C° 0 mm 1 m/s 746 mmHg 47%
    20:00 +31°C° 0 mm 1 m/s 746 mmHg 51%
    21:00 +30°C° 0 mm 1 m/s 746 mmHg 55%
    22:00 +30°C° 0 mm 1 m/s 746 mmHg 55%
    23:00 +30°C° 0 mm 1 m/s 746 mmHg 55%
    Voir plus